Radiation Dose at Monitoring Post of Fukushima Daini Nuclear Power Station
Date,Time,MP-1(microSv/h),MP-2(microSv/h),MP-3(microSv/h),MP-4(microSv/h),MP-5(microSv/h),MP-6(microSv/h),MP-7(microSv/h),Wind Direction,Wind Velocity(m/s),Rain
2020/02/27,00:00,0.178,0.164,0.268,0.248,0.249,0.137,0.084,north-northwest,7.0,No
2020/02/27,00:10,0.178,0.164,0.267,0.248,0.250,0.137,0.084,north-northwest,6.5,No
2020/02/27,00:20,0.177,0.164,0.268,0.247,0.250,0.137,0.084,north-northwest,6.6,No
2020/02/27,00:30,0.178,0.163,0.268,0.248,0.250,0.137,0.086,north-northwest,6.9,No
2020/02/27,00:40,0.178,0.164,0.268,0.249,0.250,0.138,0.085,north-northwest,6.9,No
2020/02/27,00:50,0.178,0.164,0.268,0.248,0.249,0.137,0.085,north-northwest,7.4,No
2020/02/27,01:00,0.177,0.164,0.267,0.248,0.250,0.138,0.085,north-northwest,7.4,No
2020/02/27,01:10,0.178,0.164,0.267,0.248,0.250,0.137,0.085,north-northwest,7.4,No
2020/02/27,01:20,0.178,0.165,0.267,0.248,0.250,0.137,0.085,north-northwest,8.2,No
2020/02/27,01:30,0.178,0.164,0.267,0.248,0.251,0.138,0.085,north-northwest,7.9,No
2020/02/27,01:40,0.177,0.165,0.268,0.248,0.250,0.137,0.086,north-northwest,8.5,No
2020/02/27,01:50,0.177,0.165,0.268,0.248,0.251,0.137,0.085,north-northwest,7.6,No
2020/02/27,02:00,0.177,0.164,0.267,0.249,0.252,0.137,0.085,north-northwest,8.2,No
2020/02/27,02:10,0.177,0.164,0.267,0.248,0.251,0.137,0.085,north-northwest,8.4,No
2020/02/27,02:20,0.177,0.164,0.268,0.249,0.250,0.138,0.084,north-northwest,8.4,No
2020/02/27,02:30,0.177,0.165,0.269,0.248,0.251,0.137,0.085,north-northwest,7.7,No
2020/02/27,02:40,0.177,0.163,0.268,0.249,0.250,0.138,0.085,north-northwest,8.2,No
2020/02/27,02:50,0.178,0.165,0.267,0.248,0.250,0.138,0.086,north-northwest,7.8,No
2020/02/27,03:00,0.178,0.164,0.268,0.248,0.249,0.136,0.085,north-northwest,7.7,No
2020/02/27,03:10,0.177,0.164,0.268,0.248,0.249,0.136,0.085,north-northwest,7.9,No
2020/02/27,03:20,0.178,0.164,0.269,0.248,0.250,0.137,0.085,northwest,7.7,No
2020/02/27,03:30,0.177,0.164,0.268,0.248,0.248,0.137,0.085,north-northwest,8.2,No
2020/02/27,03:40,0.178,0.165,0.268,0.248,0.250,0.137,0.085,north-northwest,8.5,No
2020/02/27,03:50,0.178,0.164,0.267,0.248,0.250,0.137,0.085,north-northwest,7.9,No
2020/02/27,04:00,0.178,0.163,0.269,0.247,0.250,0.137,0.085,north-northwest,7.6,No
2020/02/27,04:10,0.177,0.164,0.268,0.248,0.250,0.137,0.085,north-northwest,8.1,No
2020/02/27,04:20,0.179,0.163,0.268,0.248,0.249,0.137,0.085,north-northwest,7.7,No
2020/02/27,04:30,0.179,0.165,0.269,0.248,0.250,0.137,0.084,north-northwest,7.4,No
2020/02/27,04:40,0.178,0.164,0.268,0.248,0.251,0.137,0.084,north-northwest,7.3,No
2020/02/27,04:50,0.177,0.164,0.268,0.248,0.250,0.138,0.084,north-northwest,8.6,No
2020/02/27,05:00,0.178,0.164,0.268,0.248,0.250,0.137,0.085,north-northwest,8.1,No
2020/02/27,05:10,0.178,0.165,0.268,0.247,0.250,0.138,0.085,north-northwest,7.1,No
2020/02/27,05:20,0.178,0.164,0.268,0.247,0.252,0.137,0.085,north-northwest,7.4,No
2020/02/27,05:30,0.178,0.165,0.268,0.250,0.250,0.138,0.085,north-northwest,6.8,No
2020/02/27,05:40,0.178,0.165,0.267,0.248,0.249,0.137,0.084,north-northwest,7.3,No
2020/02/27,05:50,0.179,0.165,0.268,0.247,0.250,0.137,0.085,north-northwest,7.9,No
2020/02/27,06:00,0.178,0.163,0.268,0.248,0.251,0.137,0.085,north-northwest,7.4,No
2020/02/27,06:10,0.177,0.164,0.268,0.249,0.250,0.138,0.084,north-northwest,8.1,No
2020/02/27,06:20,0.178,0.165,0.267,0.248,0.251,0.137,0.085,north-northwest,8.1,No
2020/02/27,06:30,0.178,0.164,0.267,0.248,0.249,0.137,0.086,northwest,8.1,No
2020/02/27,06:40,0.178,0.165,0.267,0.249,0.250,0.138,0.085,north-northwest,7.0,No
2020/02/27,06:50,0.177,0.164,0.267,0.249,0.250,0.138,0.085,north-northwest,8.2,No
2020/02/27,07:00,0.178,0.164,0.268,0.249,0.249,0.137,0.085,northwest,8.2,No
2020/02/27,07:10,0.177,0.163,0.267,0.248,0.249,0.138,0.085,northwest,8.1,Yes
2020/02/27,07:20,0.178,0.164,0.268,0.248,0.251,0.137,0.085,north-northwest,7.9,Yes
2020/02/27,07:30,0.177,0.164,0.268,0.249,0.249,0.137,0.084,northwest,8.4,Yes
2020/02/27,07:40,0.178,0.164,0.268,0.249,0.250,0.137,0.084,northwest,8.2,No
2020/02/27,07:50,0.177,0.164,0.269,0.248,0.250,0.138,0.084,north-northwest,7.7,No
2020/02/27,08:00,0.178,0.164,0.268,0.248,0.251,0.137,0.085,north-northwest,9.3,No
2020/02/27,08:10,0.177,0.164,0.267,0.248,0.251,0.138,0.085,north-northwest,9.0,No
2020/02/27,08:20,0.178,0.165,0.268,0.247,0.249,0.137,0.085,northwest,8.3,Yes
2020/02/27,08:30,0.178,0.165,0.269,0.248,0.249,0.138,0.085,northwest,9.5,No
2020/02/27,08:40,0.178,0.164,0.269,0.247,0.250,0.138,0.085,northwest,9.3,No
2020/02/27,08:50,0.178,0.164,0.268,0.249,0.251,0.137,0.085,northwest,9.2,No
2020/02/27,09:00,0.179,0.165,0.268,0.248,0.250,0.137,0.085,northwest,7.0,No
2020/02/27,09:10,0.178,0.164,0.268,0.248,0.250,0.137,0.085,north-northwest,8.1,No
2020/02/27,09:20,0.177,0.164,0.270,0.248,0.250,0.138,0.085,north-northwest,8.7,No
2020/02/27,09:30,0.178,0.163,0.268,0.247,0.250,0.138,0.084,north-northwest,8.5,No
2020/02/27,09:40,0.177,0.164,0.269,0.246,0.250,0.137,0.084,north-northwest,9.2,No
2020/02/27,09:50,0.177,0.165,0.268,0.248,0.250,0.137,0.084,north-northwest,9.2,No
2020/02/27,10:00,0.177,0.163,0.268,0.247,0.251,0.138,0.086,north-northwest,8.8,No
2020/02/27,10:10,0.177,0.164,0.269,0.249,0.251,0.137,0.085,north-northwest,7.9,No
2020/02/27,10:20,0.176,0.164,0.268,0.247,0.249,0.137,0.085,north-northwest,8.4,No
2020/02/27,10:30,0.177,0.164,0.269,0.247,0.251,0.136,0.084,north-northwest,9.5,No
2020/02/27,10:40,0.178,0.165,0.266,0.249,0.249,0.137,0.085,north-northwest,6.2,No
2020/02/27,10:50,0.177,0.164,0.269,0.248,0.250,0.137,0.084,north-northeast,7.0,No
2020/02/27,11:00,0.178,0.163,0.268,0.249,0.249,0.136,0.085,north,7.5,No
2020/02/27,11:10,0.177,0.166,0.268,0.247,0.250,0.137,0.084,north,8.2,No
2020/02/27,11:20,0.178,0.164,0.268,0.248,0.251,0.138,0.083,north,6.4,No
2020/02/27,11:30,0.177,0.164,0.269,0.249,0.250,0.138,0.084,north,6.6,No
2020/02/27,11:40,0.177,0.164,0.267,0.247,0.250,0.137,0.084,north,9.5,No
2020/02/27,11:50,0.178,0.164,0.268,0.249,0.250,0.137,0.085,north,7.3,No
2020/02/27,12:00,0.177,0.164,0.268,0.247,0.249,0.137,0.084,north,10.9,No
2020/02/27,12:10,0.179,0.163,0.268,0.249,0.251,0.137,0.085,north,7.9,No
2020/02/27,12:20,0.178,0.165,0.268,0.248,0.250,0.137,0.084,north,8.1,No
2020/02/27,12:30,0.179,0.166,0.268,0.249,0.250,0.137,0.085,north,7.3,No
2020/02/27,12:40,0.178,0.165,0.271,0.249,0.251,0.137,0.084,north,7.7,Yes
2020/02/27,12:50,0.179,0.166,0.270,0.251,0.252,0.138,0.084,north,9.8,Yes
2020/02/27,13:00,0.180,0.167,0.269,0.249,0.251,0.139,0.086,north,8.7,Yes
2020/02/27,13:10,0.181,0.168,0.270,0.252,0.253,0.140,0.088,north,7.0,Yes
2020/02/27,13:20,0.181,0.169,0.272,0.253,0.254,0.140,0.088,north,8.7,Yes
2020/02/27,13:30,0.185,0.172,0.273,0.253,0.253,0.142,0.089,north,7.9,Yes
2020/02/27,13:40,0.183,0.171,0.272,0.253,0.254,0.141,0.090,north,4.0,No
2020/02/27,13:50,0.183,0.170,0.272,0.252,0.253,0.142,0.089,northwest,3.0,No
2020/02/27,14:00,0.183,0.170,0.271,0.251,0.252,0.139,0.089,north-northwest,1.8,Yes
2020/02/27,14:10,0.181,0.168,0.268,0.251,0.252,0.140,0.089,north-northwest,1.9,No
2020/02/27,14:20,0.182,0.168,0.270,0.251,0.253,0.140,0.088,north,1.8,No
2020/02/27,14:30,0.181,0.166,0.268,0.249,0.250,0.138,0.087,northeast,3.6,No
2020/02/27,14:40,0.179,0.167,0.269,0.249,0.251,0.139,0.087,northeast,5.4,No
2020/02/27,14:50,0.179,0.165,0.268,0.249,0.251,0.137,0.086,northeast,4.4,No
2020/02/27,15:00,0.179,0.166,0.267,0.249,0.251,0.138,0.086,northeast,4.6,No
2020/02/27,15:10,0.178,0.165,0.268,0.250,0.252,0.138,0.085,northeast,6.3,No
2020/02/27,15:20,0.178,0.165,0.269,0.250,0.253,0.139,0.086,north-northeast,6.3,Yes
2020/02/27,15:30,0.179,0.165,0.270,0.251,0.251,0.138,0.085,north,9.8,Yes
2020/02/27,15:40,0.180,0.166,0.269,0.251,0.252,0.140,0.086,north,5.6,Yes
2020/02/27,15:50,0.179,0.167,0.270,0.250,0.253,0.140,0.086,north-northeast,6.4,No
2020/02/27,16:00,0.179,0.166,0.269,0.251,0.253,0.139,0.086,north-northeast,5.7,No
2020/02/27,16:10,0.179,0.167,0.270,0.250,0.253,0.140,0.086,north,4.0,No
2020/02/27,16:20,0.180,0.166,0.269,0.249,0.251,0.139,0.086,west-northwest,7.6,Yes
2020/02/27,16:30,0.179,0.167,0.269,0.251,0.251,0.140,0.086,northwest,7.6,No
2020/02/27,16:40,0.178,0.166,0.269,0.249,0.251,0.139,0.086,northwest,7.3,No
2020/02/27,16:50,0.179,0.167,0.269,0.249,0.251,0.139,0.086,northwest,6.0,No
2020/02/27,17:00,0.179,0.166,0.269,0.249,0.251,0.139,0.085,northwest,6.3,No
2020/02/27,17:10,0.178,0.165,0.269,0.250,0.250,0.138,0.085,north-northwest,5.1,No
2020/02/27,17:20,0.178,0.166,0.268,0.249,0.251,0.139,0.086,north,6.2,No
2020/02/27,17:30,0.178,0.165,0.269,0.249,0.251,0.137,0.085,north-northwest,5.5,No
2020/02/27,17:40,0.178,0.165,0.269,0.249,0.250,0.138,0.085,north-northwest,4.5,No
2020/02/27,17:50,0.178,0.165,0.269,0.249,0.250,0.137,0.085,north-northwest,5.1,No
2020/02/27,18:00,0.178,0.164,0.268,0.248,0.250,0.138,0.085,north-northwest,3.3,No
2020/02/27,18:10,0.177,0.164,0.267,0.249,0.251,0.137,0.084,north-northwest,4.8,No
2020/02/27,18:20,0.177,0.165,0.268,0.248,0.250,0.137,0.084,north-northwest,5.9,No
2020/02/27,18:30,0.178,0.164,0.269,0.248,0.249,0.137,0.084,north-northwest,6.7,No
2020/02/27,18:40,0.178,0.163,0.269,0.248,0.250,0.136,0.084,north-northwest,7.4,No
2020/02/27,18:50,0.178,0.163,0.267,0.247,0.250,0.136,0.084,north-northwest,7.0,No
2020/02/27,19:00,0.178,0.164,0.269,0.249,0.251,0.136,0.085,northwest,5.2,No
2020/02/27,19:10,0.177,0.164,0.268,0.249,0.248,0.137,0.083,northwest,7.3,No
2020/02/27,19:20,0.178,0.164,0.268,0.248,0.250,0.136,0.084,northwest,9.0,No
2020/02/27,19:30,0.178,0.163,0.268,0.248,0.250,0.137,0.085,northwest,8.5,No
2020/02/27,19:40,0.178,0.164,0.268,0.247,0.250,0.138,0.084,northwest,6.6,No
2020/02/27,19:50,0.177,0.164,0.268,0.248,0.249,0.137,0.083,northwest,6.5,No
2020/02/27,20:00,0.178,0.165,0.267,0.248,0.250,0.136,0.085,northwest,6.0,No
2020/02/27,20:10,0.177,0.163,0.269,0.248,0.248,0.137,0.084,northwest,5.4,No
2020/02/27,20:20,0.178,0.164,0.268,0.249,0.249,0.137,0.083,northwest,6.7,No
2020/02/27,20:30,0.178,0.163,0.268,0.249,0.250,0.139,0.085,northwest,6.1,No
2020/02/27,20:40,0.178,0.164,0.267,0.249,0.250,0.137,0.084,northwest,6.5,No
2020/02/27,20:50,0.177,0.164,0.268,0.249,0.250,0.136,0.084,northwest,5.8,No
2020/02/27,21:00,0.177,0.164,0.268,0.249,0.250,0.137,0.084,northwest,5.2,No
2020/02/27,21:10,0.177,0.163,0.268,0.248,0.250,0.138,0.084,west-northwest,3.4,No
2020/02/27,21:20,0.178,0.163,0.269,0.248,0.250,0.137,0.084,northwest,3.0,No
2020/02/27,21:30,0.178,0.164,0.268,0.248,0.249,0.138,0.084,west-northwest,3.4,No
2020/02/27,21:40,0.178,0.164,0.267,0.248,0.250,0.137,0.085,northwest,4.0,No
2020/02/27,21:50,0.178,0.164,0.268,0.249,0.249,0.136,0.084,west-northwest,3.6,No
2020/02/27,22:00,0.177,0.164,0.268,0.249,0.250,0.136,0.084,west-northwest,4.5,No
2020/02/27,22:10,0.177,0.164,0.268,0.248,0.249,0.137,0.084,northwest,4.8,No
2020/02/27,22:20,0.178,0.163,0.268,0.249,0.249,0.137,0.084,northwest,4.4,No
2020/02/27,22:30,0.177,0.163,0.268,0.250,0.249,0.137,0.084,west-northwest,4.2,No
2020/02/27,22:40,0.177,0.165,0.268,0.249,0.250,0.137,0.084,northwest,4.6,No
2020/02/27,22:50,0.178,0.164,0.267,0.248,0.250,0.137,0.084,northwest,5.9,No
2020/02/27,23:00,0.178,0.164,0.267,0.248,0.250,0.137,0.085,northwest,7.1,No
2020/02/27,23:10,0.178,0.164,0.268,0.247,0.250,0.137,0.084,northwest,5.2,No
2020/02/27,23:20,0.177,0.163,0.267,0.249,0.249,0.136,0.084,northwest,2.3,No
2020/02/27,23:30,0.177,0.163,0.267,0.249,0.249,0.137,0.085,west-northwest,2.7,No
2020/02/27,23:40,0.177,0.164,0.269,0.249,0.249,0.137,0.085,northwest,2.5,No
2020/02/27,23:50,0.177,0.164,0.268,0.249,0.250,0.137,0.085,north-northwest,1.9,No
